This demonstration page uses our WeatherBlox Daily Observations layout. Learn more.

Left ArrowRight Arrow

41.55636, -103.73856

Hourly Observations for October 10, 2021

Temp ( °F °C ) Dew Point ( °F °C ) Humidity (%) Winds ( mph kmh ) Pressure ( in mb ) Visibility ( mi km ) Precip ( " mm )
12:58 am 00:58 Mostly Cloudy 52 10.9 39 3.8 62 62 NW 22 35 29.83 1010 10 16 0.00 0.00
1:58 am 01:58 Mostly Cloudy 51 10.8 40 4.5 65 65 NW 18 30 29.84 1011 10 16 0.00 0.00
2:58 am 02:58 Mostly Cloudy 50 10.1 40 4.4 68 68 NW 18 30 29.84 1011 10 16 0.00 0.00
3:58 am 03:58 Mostly Clear 48 8.9 40 4.4 74 74 NW 13 20 29.85 1011 10 16 0.00 0.00
4:58 am 04:58 Clear 47 8.2 40 4.2 76 76 WNW 15 24 29.86 1011 10 16 0.00 0.00
5:58 am 05:58 Clear 46 7.5 38 3.6 77 77 NW 12 19 29.87 1012 10 16 0.00 0.00
6:58 am 06:58 Partly Cloudy 43 6.3 38 3.4 82 82 NW 9 15 29.91 1013 10 16 0.00 0.00
7:58 am 07:58 Cloudy 45 7.1 38 3.6 79 79 Calm 29.93 1014 10 16 0.00 0.00
8:58 am 08:58 Mostly Cloudy 49 9.5 39 3.8 68 68 WNW 12 19 29.92 1013 10 16 0.00 0.00
9:58 am 09:58 Sunny 54 12.1 38 3.6 56 56 NW 16 26 29.91 1013 10 16 0.00 0.00
10:58 am 10:58 Sunny 57 13.8 38 3.2 49 49 NW 12 19 29.89 1012 10 16 0.00 0.00
11:58 am 11:58 Mostly Cloudy 60 15.8 34 1 37 37 WNW 14 22 29.86 1011 10 16 0.00 0.00
12:58 pm 12:58 Mostly Cloudy 63 17.2 32 -0.1 31 31 NW 13 20 29.82 1010 10 16 0.00 0.00
1:58 pm 13:58 Partly Cloudy 64 17.6 31 -0.6 29 29 NW 15 24 29.79 1009 10 16 0.00 0.00
2:58 pm 14:58 Mostly Sunny 65 18.2 30 -1 27 27 WNW 14 22 29.76 1008 10 16 0.00 0.00
3:58 pm 15:58 Sunny 65 18.4 26 -3.6 22 22 WNW 28 44 29.76 1008 10 16 0.00 0.00
4:58 pm 16:58 Sunny 64 17.6 23 -4.9 21 21 NW 21 33 29.78 1008 10 16 0.00 0.00
5:58 pm 17:58 Sunny 62 16.4 24 -4.5 24 24 WNW 15 24 29.80 1009 10 16 0.00 0.00
6:58 pm 18:58 Clear 58 14.3 24 -4.4 27 27 WNW 13 20 29.83 1010 10 16 0.00 0.00
7:58 pm 19:58 Clear 52 10.9 24 -4.2 35 35 WNW 12 19 29.85 1011 10 16 0.00 0.00
8:58 pm 20:58 Clear 48 8.9 26 -3.6 41 41 WSW 7 11 29.87 1011 10 16 0.00 0.00
9:58 pm 21:58 Mostly Clear 46 8 27 -2.9 46 46 WSW 9 15 29.85 1011 10 16 0.00 0.00
10:58 pm 22:58 Clear 44 6.7 28 -2.5 52 52 W 9 15 29.84 1011 10 16 0.00 0.00
11:58 pm 23:58 Clear 41 5.1 27 -2.8 57 57 WSW 8 13 29.83 1010 10 16 0.00 0.00

Powered by AerisWeather